Content
SEND FEEDBACK

Daily
Averages
Monthly
Summary
United States of America

EDWARDSVILLE, NEW YORK


Home > North America > United States > New York
Elevation: 680 feet     Latitude: 44 03N     Longitude: 075 43W

WEATHER
 
SELECT A DAY
Number of Records: 269,516;   Date Range: 1/1/95 - 8/12/14
 
SHARE

PRINT THIS DATA

[ ← Previous Day ]
WEATHER ALMANAC - JANUARY 3, 2013
[ Next Day → ]
[ °C ]   °F
Weather ElementAverageHighLow
Temperature19 °F28.2 °F (11:55 pm)-9.4 °F (3:01 am)
Dewpoint16.9 °F27 °F (11:55 pm)-14.8 °F (3:01 am)
Humidity91.3 %100 % (8:02 pm)71 % (9:24 am)
Barometer30.00 in30.27 in (1:55 am)29.92 in (11:55 pm)
Wind Speed8.5 mph15 mph (6:20 pm)
Wind Gust17.3 mph (4:55 pm)
Weather ElementAverage
Visibility3.9 mi
Wind DirectionSSW (203 °)

Weather ElementTotal
Precipitation---
Heating Degree Days55.6 (Base 65)
Averaged from 93 records on January 3, 2013
WEATHER CONDITIONS BREAKOUT
WIND DIRECTION BREAKOUT
WEATHER BY HOUR - JANUARY 3, 2013
[ °C ]   °F
Local TimeTemperatureDewpointHumidityBarometerVisibilityWind DirectionWind SpeedGust SpeedPrecipitationEventsConditions
1:55 AM-6.3 °F-11.2 °F79 %30.27 in10.0 miSE (140°)3.5 mphClear
2:55 AM-8.5 °F-13.5 °F79 %30.27 in10.0 miSE (130°)6.9 mphPartly Cloudy
3:01 AM-9.4 °F-14.8 °F77 %30.27 in10.0 miSE (130°)6.9 mphMostly Cloudy
3:55 AM-7.6 °F-12.1 °F81 %30.25 in8.0 miSE (130°)6.9 mphOvercast
4:55 AM-6.3 °F-11.7 °F77 %30.22 in10.0 miSE (140°)10.4 mphOvercast
5:08 AM-5.8 °F-11.2 °F77 %30.22 in10.0 miSE (130°)9.2 mphOvercast
5:27 AM-5.8 °F-11.2 °F77 %30.22 in10.0 miSE (130°)9.2 mphOvercast
5:55 AM-6.0 °F-11.9 °F75 %30.22 in10.0 miSE (140°)9.2 mphOvercast
6:55 AM-7.2 °F-13.2 °F75 %30.20 in10.0 miSE (140°)10.4 mphMostly Cloudy
7:01 AM-7.6 °F-13.0 °F77 %30.20 in10.0 miSSE (150°)10.4 mphScattered Clouds
7:31 AM-7.6 °F-13.0 °F77 %30.20 in10.0 miSE (130°)8.1 mphSnowLight Snow
7:41 AM-7.6 °F-13.0 °F77 %30.19 in10.0 miSE (130°)9.2 mphClear
7:55 AM-6.9 °F-12.8 °F75 %30.20 in10.0 miSE (130°)10.4 mph0.00 inClear
8:55 AM-4.2 °F-10.8 °F73 %30.18 in10.0 miSE (140°)11.5 mphOvercast
9:24 AM-2.2 °F-9.4 °F71 %30.17 in10.0 miSE (140°)10.4 mphOvercast
9:25 AM-2.2 °F-9.4 °F71 %30.17 in10.0 miSE (140°)10.4 mphOvercast
9:34 AM-2.2 °F-7.6 °F78 %30.17 in10.0 miSE (140°)8.1 mphOvercast
4:51 PM23.0 °F21.2 °F93 %29.97 in1.2 miSW (220°)9.2 mphSnowLight Snow
4:55 PM22.8 °F20.8 °F92 %29.97 in1.2 miSW (220°)11.5 mph17.3 mph0.00 inSnowLight Snow
4:56 PM23.0 °F21.2 °F93 %29.98 in1.2 miSW (220°)10.4 mph17.3 mphSnowLight Snow
4:58 PM23.0 °F21.2 °F93 %29.97 in1.5 miSW (220°)11.5 mph17.3 mphSnowLight Snow
5:00 PM23.0 °F21.2 °F93 %29.97 in1.5 miSW (220°)9.2 mphSnowLight Snow
5:02 PM23.0 °F21.2 °F93 %29.98 in1.8 miSW (220°)9.2 mph17.3 mphSnowLight Snow
5:03 PM23.0 °F21.2 °F93 %29.98 in2.0 miSW (220°)9.2 mph17.3 mphSnowLight Snow
5:10 PM23.0 °F21.2 °F93 %29.97 in2.0 miSW (220°)9.2 mphSnowLight Snow
5:11 PM23.0 °F21.2 °F93 %29.97 in2.5 miSSW (210°)9.2 mphSnowLight Snow
5:15 PM23.0 °F21.2 °F93 %29.97 in2.0 miSSW (210°)10.4 mphSnowLight Snow
5:34 PM23.0 °F21.2 °F93 %29.97 in2.5 miSSW (210°)10.4 mphSnowLight Snow
5:54 PM23.0 °F21.2 °F93 %29.96 in2.0 miSSW (210°)11.5 mphSnowLight Snow
5:55 PM23.4 °F21.2 °F91 %29.96 in2.0 miSSW (200°)12.7 mph0.00 inSnowLight Snow
6:01 PM23.0 °F21.2 °F93 %29.96 in2.5 miSSW (200°)11.5 mphSnowLight Snow
6:13 PM23.0 °F21.2 °F93 %29.95 in2.0 miSSW (210°)13.8 mphSnowLight Snow
6:20 PM23.0 °F21.2 °F93 %29.95 in1.8 miSSW (210°)15.0 mphSnowLight Snow
6:31 PM23.0 °F21.2 °F93 %29.95 in1.5 miSW (220°)10.4 mphSnowLight Snow
6:35 PM23.0 °F21.2 °F93 %29.95 in1.2 miSSW (210°)11.5 mphSnowLight Snow
6:39 PM24.8 °F23.0 °F93 %29.96 in1.2 miSW (220°)12.7 mphSnowLight Snow
6:44 PM24.8 °F23.0 °F93 %29.96 in1.0 miSSW (210°)11.5 mphSnowLight Snow
6:47 PM24.8 °F23.0 °F93 %29.96 in1.0 miSW (220°)11.5 mphSnowLight Snow
6:49 PM24.8 °F23.0 °F93 %29.96 in1.0 miSW (220°)10.4 mphSnowLight Snow
6:50 PM24.8 °F23.0 °F93 %29.96 in0.8 miSW (220°)11.5 mphSnowLight Snow
6:55 PM24.1 °F22.6 °F94 %29.96 in0.8 miSW (220°)10.4 mph0.00 inSnowLight Snow
7:03 PM24.8 °F23.0 °F93 %29.95 in1.0 miSW (220°)9.2 mphSnowLight Snow
7:06 PM24.8 °F23.0 °F93 %29.96 in1.0 miSW (230°)9.2 mphSnowLight Snow
7:07 PM24.8 °F23.0 °F93 %29.96 in1.2 miSW (220°)8.1 mphSnowLight Snow
7:10 PM24.8 °F23.0 °F93 %29.95 in1.5 miSW (220°)9.2 mphSnowLight Snow
7:13 PM24.8 °F23.0 °F93 %29.95 in1.8 miSW (220°)6.9 mphSnowLight Snow
7:15 PM24.8 °F23.0 °F93 %29.95 in1.8 miSW (220°)6.9 mphSnowLight Snow
7:19 PM24.8 °F23.0 °F93 %29.95 in1.2 miSW (220°)9.2 mphSnowLight Snow
7:23 PM24.8 °F23.0 °F93 %29.95 in1.2 miSW (230°)8.1 mphSnowLight Snow
7:28 PM24.8 °F23.0 °F93 %29.95 in1.2 miSW (220°)9.2 mphSnowLight Snow
7:29 PM24.8 °F23.0 °F93 %29.95 in1.5 miSW (220°)8.1 mphSnowLight Snow
7:30 PM24.8 °F23.0 °F93 %29.95 in1.5 miSW (220°)8.1 mphSnowLight Snow
7:32 PM24.8 °F23.0 °F93 %29.95 in1.8 miSW (220°)8.1 mphSnowLight Snow
7:35 PM24.8 °F23.0 °F93 %29.95 in2.0 miSW (220°)8.1 mphSnowLight Snow
7:36 PM24.8 °F23.0 °F93 %29.95 in1.8 miSW (230°)6.9 mphSnowLight Snow
7:41 PM24.8 °F23.0 °F93 %29.95 in1.8 miSW (230°)8.1 mphSnowLight Snow
7:43 PM24.8 °F23.0 °F93 %29.95 in1.2 miSW (230°)6.9 mphSnowLight Snow
7:45 PM24.8 °F23.0 °F93 %29.95 in1.0 miSW (230°)8.1 mphSnowLight Snow
7:46 PM24.8 °F23.0 °F93 %29.95 in1.0 miSW (230°)8.1 mphSnowLight Snow
7:50 PM24.8 °F23.0 °F93 %29.95 in0.8 miSW (230°)9.2 mphSnowLight Snow
7:54 PM24.8 °F23.0 °F93 %29.96 in1.0 miSW (230°)9.2 mphSnowLight Snow
7:55 PM24.6 °F23.9 °F97 %29.95 in1.0 miSW (230°)10.4 mph0.00 inSnowLight Snow
7:59 PM24.8 °F23.0 °F93 %29.96 in1.0 miWSW (240°)9.2 mphSnowLight Snow
8:02 PM24.8 °F24.8 °F100 %29.95 in1.2 miSW (230°)9.2 mphSnowLight Snow
8:06 PM24.8 °F24.8 °F100 %29.95 in1.2 miSW (230°)6.9 mphSnowLight Snow
8:07 PM24.8 °F24.8 °F100 %29.95 in1.5 miSW (230°)6.9 mphSnowLight Snow
8:14 PM24.8 °F24.8 °F100 %29.95 in1.8 miWSW (240°)6.9 mphSnowLight Snow
8:15 PM24.8 °F24.8 °F100 %29.95 in2.0 miWSW (240°)6.9 mphSnowLight Snow
8:16 PM24.8 °F24.8 °F100 %29.95 in1.8 miWSW (240°)6.9 mphSnowLight Snow
8:32 PM24.8 °F23.0 °F93 %29.95 in2.0 miSW (230°)11.5 mphSnowLight Snow
8:41 PM24.8 °F23.0 °F93 %29.95 in2.5 miSW (230°)8.1 mphSnowLight Snow
8:45 PM24.8 °F23.0 °F93 %29.95 in3.0 miWSW (240°)8.1 mphSnowLight Snow
8:55 PM24.8 °F24.1 °F97 %29.95 in5.0 miWSW (240°)6.9 mph0.00 inSnowLight Snow
9:03 PM24.8 °F24.8 °F100 %29.95 in6.0 miWSW (240°)8.1 mphSnowLight Snow
9:04 PM24.8 °F24.8 °F100 %29.95 in6.0 miWSW (240°)8.1 mphSnowLight Snow
9:19 PM24.8 °F24.8 °F100 %29.95 in8.0 miSW (230°)5.8 mphSnowLight Snow
9:55 PM25.0 °F24.1 °F96 %29.95 in6.0 miVariable5.8 mph0.00 inSnowLight Snow
10:20 PM24.8 °F24.8 °F100 %29.94 in10.0 miSSW (210°)5.8 mphOvercast
10:21 PM24.8 °F24.8 °F100 %29.94 in10.0 miSSW (210°)5.8 mphOvercast
10:23 PM24.8 °F24.8 °F100 %29.94 in9.0 miSW (220°)4.6 mphOvercast
10:25 PM24.8 °F24.8 °F100 %29.94 in9.0 miSW (220°)4.6 mphSnowLight Snow
10:30 PM24.8 °F24.8 °F100 %29.94 in7.0 miSW (220°)3.5 mphSnowLight Snow
10:55 PM26.1 °F25.3 °F97 %29.93 in4.0 miWSW (240°)4.6 mph0.00 inSnowLight Snow
11:00 PM26.6 °F24.8 °F93 %29.93 in3.0 miWSW (250°)3.5 mphSnowLight Snow
11:02 PM26.6 °F24.8 °F93 %29.93 in2.5 miWSW (240°)4.6 mphSnowLight Snow
11:05 PM26.6 °F24.8 °F93 %29.93 in2.0 miWest (260°)4.6 mphSnowLight Snow
11:09 PM26.6 °F24.8 °F93 %29.93 in2.0 miWest (260°)5.8 mphSnowLight Snow
11:11 PM26.6 °F24.8 °F93 %29.93 in2.5 miWest (260°)5.8 mphSnowLight Snow
11:14 PM26.6 °F24.8 °F93 %29.93 in3.0 miWest (260°)3.5 mphSnowLight Snow
11:16 PM26.6 °F24.8 °F93 %29.93 in3.0 miVariable4.6 mphSnowLight Snow
11:17 PM26.6 °F26.6 °F100 %29.93 in3.0 miVariable5.8 mphSnowLight Snow
11:21 PM26.6 °F26.6 °F100 %29.93 in4.0 miWest (270°)5.8 mphSnowLight Snow
11:55 PM28.2 °F27.0 °F95 %29.92 in8.0 miWest (270°)8.1 mph0.00 inSnowLight Snow
Hourly data recorded from KGTB, located miles away from Edwardsville, New York







STORIES FROM OUR PARTNERS